| time (UTC) | temp F | wind direction | speed MPH | gust MPH | rain 1hr in | rain 24hr in | rain mn in | humidity % | barometer mb |
| 20260903201606 | 90 | 179 | 1.0 | 4.0 | 0.00 | 0.00 | 0.00 | 60 | 1011.1 |
| 20260903194600 | 89 | 92 | 0.0 | 3.0 | 0.00 | 0.00 | 0.00 | 60 | 1011.3 |
| 20260903193108 | 88 | 172 | 0.0 | 2.0 | 0.00 | 0.00 | 0.00 | 61 | 1011.5 |
| 20260903191558 | 88 | 0 | 0.0 | 1.0 | 0.00 | 0.00 | 0.00 | 62 | 1011.9 |
| 20260903190111 | 87 | 0 | 0.0 | 1.0 | 0.00 | 0.00 | 0.00 | 64 | 1012.0 |
| 20260903184606 | 87 | 0 | 0.0 | 2.0 | 0.00 | 0.00 | 0.00 | 66 | 1012.1 |
| 20260903183107 | 86 | 0 | 0.0 | 2.0 | 0.00 | 0.00 | 0.00 | 68 | 1012.3 |
| 20260903181558 | 85 | 60 | 0.0 | 3.0 | 0.00 | 0.00 | 0.00 | 70 | 1012.7 |
| 20260903180110 | 85 | 35 | 0.0 | 3.0 | 0.00 | 0.00 | 0.00 | 71 | 1012.8 |
| 20260903174611 | 85 | 359 | 0.0 | 4.0 | 0.00 | 0.00 | 0.00 | 70 | 1013.1 |
| 20260903173107 | 85 | 105 | 1.0 | 6.0 | 0.00 | 0.00 | 0.00 | 70 | 1013.2 |
| 20260903171606 | 86 | 276 | 1.0 | 5.0 | 0.00 | 0.00 | 0.00 | 69 | 1013.2 |
| 20260903164609 | 85 | 294 | 2.0 | 7.0 | 0.00 | 0.00 | 0.00 | 69 | 1012.9 |
| 20260903163104 | 85 | 297 | 1.0 | 6.0 | 0.00 | 0.00 | 0.00 | 68 | 1013.0 |
| 20260903161605 | 88 | 342 | 2.0 | 6.0 | 0.00 | 0.00 | 0.00 | 66 | 1012.8 |
| 20260903160111 | 90 | 0 | 0.0 | 2.0 | 0.00 | 0.00 | 0.00 | 62 | 1011.8 |
| 20260903154600 | 90 | 0 | 0.0 | 2.0 | 0.00 | 0.00 | 0.00 | 63 | 1011.7 |
| 20260903153110 | 88 | 290 | 0.0 | 2.0 | 0.00 | 0.00 | 0.00 | 64 | 1011.7 |
| 20260903151558 | 88 | 271 | 0.0 | 3.0 | 0.00 | 0.00 | 0.00 | 65 | 1011.7 |
| 20260903150058 | 87 | 281 | 0.0 | 3.0 | 0.00 | 0.00 | 0.00 | 66 | 1011.8 |
| 20260903144606 | 87 | 0 | 0.0 | 6.0 | 0.00 | 0.00 | 0.00 | 66 | 1011.9 |
| 20260903143107 | 86 | 296 | 0.0 | 3.0 | 0.00 | 0.00 | 0.00 | 67 | 1011.7 |
| 20260903141601 | 85 | 282 | 0.0 | 2.0 | 0.00 | 0.00 | 0.00 | 67 | 1011.7 |
| 20260903140100 | 84 | 0 | 0.0 | 2.0 | 0.00 | 0.00 | 0.00 | 68 | 1011.5 |
| 20260903134611 | 83 | 0 | 0.0 | 3.0 | 0.00 | 0.00 | 0.00 | 68 | 1011.6 |
| 20260903133111 | 82 | 158 | 0.0 | 2.0 | 0.00 | 0.00 | 0.00 | 69 | 1011.7 |
| 20260903131601 | 82 | 0 | 0.0 | 1.0 | 0.00 | 0.00 | 0.00 | 71 | 1011.6 |
| 20260903130129 | 81 | 0 | 0.0 | 2.0 | 0.00 | 0.00 | 0.00 | 72 | 1011.6 |
| 20260903124624 | 80 | 0 | 0.0 | 2.0 | 0.00 | 0.00 | 0.00 | 73 | 1011.6 |
| 20260903123101 | 80 | 0 | 0.0 | 2.0 | 0.00 | 0.00 | 0.00 | 73 | 1011.7 |
| 20260903121556 | 80 | 0 | 0.0 | 1.0 | 0.00 | 0.00 | 0.00 | 73 | 1011.7 |
| 20260903114600 | 80 | 0 | 0.0 | 3.0 | 0.00 | 0.00 | 0.00 | 72 | 1011.6 |
| 20260903113056 | 80 | 0 | 0.0 | 2.0 | 0.00 | 0.00 | 0.00 | 72 | 1011.5 |
| 20260903111602 | 80 | 0 | 0.0 | 1.0 | 0.00 | 0.00 | 0.00 | 72 | 1011.4 |
| 20260903104604 | 80 | 0 | 0.0 | 1.0 | 0.00 | 0.00 | 0.00 | 74 | 1011.3 |
| 20260903103059 | 79 | 139 | 0.0 | 2.0 | 0.00 | 0.00 | 0.00 | 75 | 1011.2 |
| 20260903101602 | 79 | 0 | 0.0 | 4.0 | 0.00 | 0.00 | 0.00 | 76 | 1011.2 |
| 20260903100100 | 79 | 0 | 0.0 | 1.0 | 0.00 | 0.00 | 0.00 | 77 | 1011.3 |
| 20260903094609 | 79 | 141 | 0.0 | 1.0 | 0.00 | 0.00 | 0.00 | 78 | 1011.2 |
| 20260903093059 | 79 | 0 | 0.0 | 1.0 | 0.00 | 0.00 | 0.00 | 79 | 1011.0 |
| 20260903091600 | 79 | 0 | 0.0 | 1.0 | 0.00 | 0.00 | 0.00 | 79 | 1011.1 |
| 20260903090107 | 79 | 0 | 0.0 | 2.0 | 0.00 | 0.00 | 0.00 | 79 | 1011.1 |
| 20260903084603 | 79 | 0 | 0.0 | 1.0 | 0.00 | 0.00 | 0.00 | 79 | 1011.0 |
| 20260903083114 | 80 | 0 | 0.0 | 2.0 | 0.00 | 0.00 | 0.00 | 79 | 1011.1 |
| 20260903081620 | 80 | 0 | 0.0 | 1.0 | 0.00 | 0.00 | 0.00 | 79 | 1011.1 |
| 20260903080100 | 80 | 0 | 0.0 | 0.0 | 0.00 | 0.00 | 0.00 | 79 | 1011.0 |
| 20260903074610 | 80 | 160 | 0.0 | 1.0 | 0.00 | 0.00 | 0.00 | 79 | 1010.9 |
| 20260903073134 | 80 | 0 | 0.0 | 0.0 | 0.00 | 0.00 | 0.00 | 78 | 1010.9 |
| 20260903071622 | 80 | 0 | 0.0 | 0.0 | 0.00 | 0.00 | 0.00 | 78 | 1011.0 |
| 20260903070100 | 80 | 0 | 0.0 | 0.0 | 0.00 | 0.00 | 0.00 | 78 | 1011.0 |
| 20260903064603 | 81 | 0 | 0.0 | 0.0 | 0.00 | 0.00 | 0.00 | 78 | 1011.2 |
| 20260903063057 | 81 | 0 | 0.0 | 0.0 | 0.00 | 0.00 | 0.00 | 77 | 1011.2 |
| 20260903061604 | 81 | 0 | 0.0 | 0.0 | 0.00 | 0.00 | 0.00 | 77 | 1011.2 |
| 20260903060144 | 81 | 0 | 0.0 | 0.0 | 0.00 | 0.00 | 0.00 | 77 | 1011.3 |
| 20260903054558 | 81 | 0 | 0.0 | 0.0 | 0.00 | 0.00 | 0.00 | 77 | 1011.1 |
| 20260903053058 | 81 | 0 | 0.0 | 0.0 | 0.00 | 0.00 | 0.00 | 77 | 1011.1 |
| 20260903051607 | 82 | 0 | 0.0 | 0.0 | 0.00 | 0.00 | 0.00 | 76 | 1011.0 |
| 20260903050059 | 82 | 0 | 0.0 | 0.0 | 0.00 | 0.00 | 0.00 | 75 | 1010.9 |
| 20260903044604 | 83 | 0 | 0.0 | 0.0 | 0.00 | 0.00 | 0.00 | 75 | 1011.1 |
| 20260903043102 | 83 | 0 | 0.0 | 0.0 | 0.00 | 0.00 | 0.00 | 74 | 1011.0 |
| 20260903041556 | 83 | 0 | 0.0 | 0.0 | 0.00 | 0.00 | 0.00 | 74 | 1011.0 |
| 20260903040105 | 84 | 161 | 0.0 | 0.0 | 0.00 | 0.00 | 0.00 | 73 | 1011.1 |
| 20260903034602 | 84 | 0 | 0.0 | 0.0 | 0.00 | 0.00 | 0.00 | 73 | 1010.8 |
| 20260903033058 | 85 | 150 | 0.0 | 1.0 | 0.00 | 0.00 | 0.00 | 72 | 1010.9 |
| 20260903031604 | 85 | 0 | 0.0 | 0.0 | 0.00 | 0.00 | 0.00 | 72 | 1010.8 |
| 20260903024559 | 85 | 0 | 0.0 | 0.0 | 0.00 | 0.00 | 0.00 | 72 | 1010.8 |
| 20260903023102 | 85 | 0 | 0.0 | 2.0 | 0.00 | 0.00 | 0.00 | 72 | 1010.9 |
| 20260903021607 | 86 | 0 | 0.0 | 2.0 | 0.00 | 0.00 | 0.00 | 71 | 1010.8 |
| 20260903020101 | 86 | 197 | 0.0 | 2.0 | 0.00 | 0.00 | 0.00 | 70 | 1010.7 |
| 20260903014608 | 87 | 0 | 0.0 | 3.0 | 0.00 | 0.00 | 0.00 | 70 | 1010.6 |
| 20260903013056 | 87 | 196 | 0.0 | 2.0 | 0.00 | 0.00 | 0.00 | 69 | 1010.5 |
| 20260903011559 | 88 | 158 | 1.0 | 3.0 | 0.00 | 0.00 | 0.00 | 68 | 1010.3 |
| 20260903010105 | 88 | 0 | 0.0 | 4.0 | 0.00 | 0.00 | 0.00 | 67 | 1010.3 |
| 20260903004600 | 89 | 210 | 0.0 | 3.0 | 0.00 | 0.00 | 0.00 | 66 | 1010.2 |
| 20260903003059 | 90 | 193 | 0.0 | 4.0 | 0.00 | 0.00 | 0.00 | 64 | 1010.2 |
| 20260903001619 | 91 | 0 | 0.0 | 1.0 | 0.00 | 0.00 | 0.00 | 62 | 1010.3 |
| 20260903000101 | 93 | 0 | 0.0 | 1.0 | 0.00 | 0.00 | 0.00 | 59 | 1010.4 |
| 20260902234623 | 93 | 0 | 0.0 | 3.0 | 0.00 | 0.00 | 0.00 | 58 | 1010.3 |
| 20260902233104 | 94 | 0 | 1.0 | 8.0 | 0.00 | 0.00 | 0.00 | 58 | 1010.3 |
| 20260902231613 | 93 | 0 | 0.0 | 4.0 | 0.00 | 0.00 | 0.00 | 59 | 1010.5 |
| 20260902230114 | 93 | 0 | 0.0 | 3.0 | 0.00 | 0.00 | 0.00 | 58 | 1010.6 |
| 20260902224605 | 94 | 0 | 0.0 | 2.0 | 0.00 | 0.00 | 0.00 | 57 | 1010.6 |
| 20260902223101 | 94 | 0 | 0.0 | 3.0 | 0.00 | 0.00 | 0.00 | 56 | 1010.4 |
| 20260902221601 | 94 | 0 | 0.0 | 5.0 | 0.00 | 0.00 | 0.00 | 55 | 1010.6 |
| 20260902214614 | 95 | 280 | 1.0 | 3.0 | 0.00 | 0.00 | 0.00 | 52 | 1010.5 |
| 20260902213100 | 95 | 286 | 0.0 | 4.0 | 0.00 | 0.00 | 0.00 | 54 | 1010.7 |
| 20260902211604 | 95 | 276 | 1.0 | 4.0 | 0.00 | 0.00 | 0.00 | 52 | 1010.7 |
| 20260902204601 | 95 | 290 | 0.0 | 4.0 | 0.00 | 0.00 | 0.00 | 52 | 1010.7 |
| 20260902203109 | 95 | 271 | 0.0 | 8.0 | 0.00 | 0.00 | 0.00 | 53 | 1010.8 |